Wind_Speed
19 19 20 20 19 18 17 15 14 14 12 9 6 6 6 6 5 5 5 5 6 6 7 7 7 8 10 12 13 15 16 17 18 18 18 18 18 17 17 17 17 17
19 20 21 20 19 18 17 16 15 14 12 9 7 6 6 6 6 5 4 5 6 7 7 7 7 8 10 12 13 14 16 17 18 18 17 17 17 17 16 16 17 17
20 20 20 20 18 18 18 17 16 14 12 10 8 7 6 6 6 5 5 6 7 7 7 8 8 9 10 12 13 14 15 16 17 17 17 17 16 16 16 16 17 18
21 20 20 19 18 19 19 18 16 14 12 10 9 7 6 6 6 6 6 6 7 8 8 8 9 9 11 12 13 14 15 16 17 17 17 16 16 16 16 17 17 18
20 20 20 20 19 20 19 18 16 14 12 11 9 8 7 7 7 6 7 7 7 8 9 9 9 10 11 12 13 14 15 16 17 17 16 15 15 16 16 17 17 17
18 20 21 21 20 20 19 18 16 14 13 11 10 8 8 8 8 7 8 8 8 9 10 10 10 11 12 12 13 14 14 16 17 16 16 15 15 16 16 16 17 17
18 20 22 22 21 20 19 18 16 15 13 11 10 8 8 9 9 9 9 8 9 9 10 11 11 11 12 12 13 14 14 16 16 16 15 15 15 15 15 16 16 17
19 21 23 23 22 21 19 18 16 15 13 11 10 9 9 9 10 10 10 9 9 10 11 12 12 12 12 12 12 13 15 15 15 15 14 14 14 14 15 15 16 16
22 22 23 23 23 22 20 18 16 15 13 12 11 10 10 10 11 11 11 10 10 11 12 13 12 13 13 12 12 13 14 15 14 14 13 13 14 14 14 15 15 16
23 23 24 24 24 22 20 19 17 16 14 13 11 11 11 11 12 12 12 11 11 12 13 13 13 13 13 12 12 13 14 14 14 13 13 13 13 14 14 14 15 15
24 24 25 25 24 22 20 19 19 17 16 14 12 11 11 12 13 13 13 13 13 13 14 14 13 13 13 12 12 13 13 14 13 13 13 13 13 13 13 14 14 15
24 25 25 25 24 22 21 20 20 19 17 15 13 12 12 13 13 14 14 13 14 14 15 14 13 13 13 13 13 13 13 13 13 12 12 13 12 12 13 13 14 15
24 25 25 25 24 23 22 21 20 19 17 15 14 13 13 13 14 14 14 14 14 15 16 15 14 14 13 13 13 13 13 12 12 11 12 12 12 12 12 13 14 14
25 25 25 24 23 23 22 21 20 19 17 16 14 14 14 14 15 15 14 14 15 16 16 16 15 14 14 13 13 12 12 12 11 11 11 11 11 12 12 13 14 14
25 25 25 24 23 23 22 21 19 18 17 16 15 15 15 15 15 15 14 14 16 16 17 16 15 15 14 14 13 12 12 11 11 10 11 11 11 12 12 13 13 14
26 26 25 24 24 23 21 20 19 18 17 17 16 16 16 16 16 16 15 15 16 17 17 16 15 15 15 14 13 12 11 11 10 10 11 11 11 12 12 13 13 13
27 27 26 25 24 23 21 20 19 18 18 18 17 16 16 17 17 16 16 16 17 17 17 16 15 15 15 14 13 12 11 11 10 10 11 11 11 12 12 13 13 13
27 28 27 26 25 24 22 21 19 19 19 19 18 17 17 18 17 17 17 17 17 17 17 16 16 15 14 14 13 12 11 10 10 10 11 10 11 11 12 12 12 12
28 28 28 27 26 24 23 21 20 20 19 19 18 18 19 19 18 17 17 17 17 17 17 16 16 15 14 14 13 11 10 10 9 10 10 10 11 12 12 12 12 12
27 28 28 26 25 24 23 22 21 20 19 19 19 20 20 20 18 18 18 18 18 17 17 17 16 15 14 14 12 11 10 9 9 10 10 10 11 12 12 12 11 11
25 26 26 25 24 24 23 21 21 20 19 19 19 20 20 20 19 18 18 18 18 18 17 17 16 15 14 13 12 11 11 9 9 9 10 10 11 12 12 12 11 10
24 24 24 24 24 23 22 21 20 19 19 19 20 20 20 20 19 19 18 18 18 18 17 17 16 15 14 13 12 11 10 9 9 9 10 10 11 12 12 11 11 10
23 23 23 24 25 24 24 23 21 19 19 19 20 21 21 20 19 19 19 19 18 18 17 17 16 14 13 12 12 11 10 9 8 9 10 11 12 12 12 11 10 10
23 24 25 25 25 24 23 21 18 17 18 20 21 22 21 20 20 20 19 19 19 19 18 16 15 14 13 12 12 11 10 8 8 9 10 11 12 12 12 11 10 10
25 25 25 25 25 25 23 18 16 16 18 20 22 22 22 21 20 20 20 20 20 19 18 16 15 13 13 13 12 10 9 9 8 9 10 11 12 12 12 12 10 9
25 24 25 26 26 27 25 20 16 16 18 20 22 23 23 22 22 21 21 21 20 19 18 16 14 13 13 12 12 10 9 9 9 9 10 11 12 13 12 12 10 9
Wind_Direction
230 231 224 210 196 187 189 198 206 213 222 232 250 265 265 265 268 267 276 298 309 311 309 310 321 337 347 350 350 350 351 351 349 348 347 347 347 349 351 354 356 356
229 228 218 206 197 192 195 203 210 215 223 235 252 265 263 261 266 269 281 304 308 306 307 310 321 335 341 343 345 347 350 350 348 347 347 347 349 352 354 355 356 357
225 224 212 202 198 196 200 206 212 217 224 235 253 265 262 259 267 274 284 297 300 302 307 310 318 329 335 339 342 345 348 348 346 346 346 348 351 354 355 355 356 356
219 217 205 200 201 200 203 208 212 219 226 236 252 264 262 258 264 273 281 288 296 303 306 308 314 324 330 336 339 342 345 345 345 345 346 349 352 354 355 355 355 356
212 208 201 200 203 203 206 210 213 221 227 236 251 262 263 261 264 273 280 286 296 302 304 306 311 319 326 332 337 340 342 343 344 345 345 349 352 354 355 355 355 356
212 205 200 201 204 206 208 210 216 222 227 235 248 260 265 264 264 270 276 285 295 301 303 303 306 314 321 329 335 338 341 343 343 343 345 349 353 354 354 354 355 357
215 206 202 203 206 208 209 213 220 224 227 235 246 259 265 263 262 266 274 284 291 297 299 298 301 309 317 327 334 337 340 343 341 342 345 348 351 352 352 354 355 357
213 206 203 207 209 211 213 217 222 225 228 237 246 257 263 261 260 264 273 282 287 293 295 293 296 305 314 325 332 336 340 341 339 340 343 347 349 350 351 353 356 357
209 206 206 209 212 214 217 220 224 227 231 238 246 255 259 259 260 264 273 280 283 288 290 288 293 302 310 321 331 336 337 336 335 338 342 345 347 348 351 353 356 359
207 208 210 212 214 217 220 222 226 231 235 239 244 251 256 258 261 266 273 278 280 284 285 285 290 298 306 317 328 333 332 331 333 337 341 344 345 348 351 354 356 358
209 211 214 216 217 220 222 225 229 233 237 239 242 247 253 257 261 267 273 275 276 279 281 282 286 294 302 312 324 328 328 329 333 337 341 342 344 347 351 354 355 357
212 214 217 218 219 222 224 227 231 234 237 239 241 244 249 254 259 266 271 273 274 277 279 280 283 290 297 307 319 323 324 328 332 336 339 339 341 346 350 353 354 356
213 215 217 218 219 222 225 228 231 234 237 238 240 243 248 253 259 265 268 270 271 274 277 278 280 285 293 303 313 318 321 326 330 332 335 336 339 345 349 351 353 355
213 214 215 217 219 221 224 227 230 233 236 238 240 243 248 253 259 263 265 266 269 272 274 275 277 281 289 299 308 314 317 321 325 329 332 333 337 344 348 349 351 352
215 215 216 218 219 221 224 227 229 232 235 237 239 244 249 254 258 261 262 263 266 270 272 273 274 278 286 295 303 308 312 316 320 325 328 329 335 342 346 347 349 349
217 218 218 219 220 222 225 227 230 234 236 238 241 246 250 254 257 259 260 262 265 268 270 270 271 276 284 292 298 301 305 310 315 321 324 327 334 340 343 344 345 346
220 220 220 220 221 224 227 229 233 237 238 240 243 247 251 253 255 258 259 261 263 266 267 266 268 274 282 288 292 296 300 304 310 316 320 325 332 338 340 341 341 342
221 222 222 223 224 227 230 233 237 240 241 242 245 248 250 251 252 254 256 258 261 264 265 264 266 271 279 284 287 290 295 299 305 312 317 323 331 335 336 336 337 337
223 224 225 226 228 231 233 236 239 241 241 243 246 246 247 247 248 250 253 257 260 263 264 263 263 269 275 280 282 285 290 294 301 308 313 320 327 330 331 332 332 334
226 227 229 230 233 235 237 238 240 241 241 242 244 244 244 245 247 249 251 255 259 261 262 262 261 266 272 276 277 281 285 290 297 304 310 316 322 325 326 327 329 331
229 230 231 233 235 237 237 237 237 238 240 241 241 241 242 244 246 249 252 255 258 261 261 260 260 264 269 272 274 277 281 287 294 300 306 312 317 319 322 323 325 327
229 231 231 232 233 233 233 234 235 236 235 235 236 237 240 243 247 250 253 255 258 260 260 259 259 262 267 269 271 274 278 283 291 296 302 308 312 315 317 319 321 324
229 230 228 227 228 228 228 226 223 223 227 230 234 237 240 243 247 249 252 254 256 258 258 257 258 261 265 267 267 271 274 279 286 292 298 304 308 311 313 313 317 322
229 227 226 227 231 236 238 228 213 211 223 231 234 236 239 243 247 249 252 253 255 256 256 255 257 260 262 263 263 267 271 274 280 287 293 299 304 307 309 310 315 321
230 229 230 234 239 246 247 234 214 214 226 232 235 238 241 244 248 250 252 252 253 254 254 253 255 257 258 259 260 263 267 269 274 281 288 296 301 305 307 309 312 317
234 236 238 239 242 246 248 237 220 220 230 235 238 241 243 245 248 249 249 250 251 253 253 253 253 254 254 255 257 259 262 263 267 275 284 293 299 303 305 306 308 312
Height
3148 3149 3151 3153 3154 3155 3157 3158 3159 3160 3160 3160 3161 3161 3162 3162 3162 3162 3162 3161 3161 3161 3161 3161 3160 3160 3159 3157 3156 3155 3154 3153 3152 3150 3149 3148 3146 3144 3143 3141 3139 3138
3146 3148 3149 3151 3153 3154 3156 3157 3158 3159 3159 3159 3160 3160 3161 3161 3161 3161 3161 3161 3161 3160 3160 3160 3160 3159 3158 3157 3156 3155 3154 3152 3151 3150 3148 3147 3145 3144 3142 3140 3139 3137
3145 3146 3148 3150 3152 3153 3155 3156 3157 3158 3158 3159 3159 3159 3160 3160 3160 3160 3160 3160 3160 3160 3159 3159 3159 3158 3157 3156 3155 3154 3153 3152 3150 3149 3148 3146 3145 3143 3141 3140 3138 3137
3144 3145 3147 3149 3151 3152 3154 3155 3156 3157 3157 3158 3158 3159 3159 3159 3159 3159 3159 3159 3159 3159 3159 3159 3158 3158 3157 3156 3154 3153 3152 3151 3149 3148 3147 3146 3144 3142 3141 3139 3138 3137
3144 3145 3146 3148 3150 3151 3152 3154 3155 3156 3156 3157 3157 3158 3158 3158 3158 3158 3158 3158 3158 3158 3158 3158 3157 3157 3156 3155 3154 3153 3151 3150 3149 3147 3146 3145 3143 3142 3140 3139 3138 3137
3142 3143 3145 3147 3148 3150 3151 3152 3154 3154 3155 3156 3156 3157 3157 3157 3157 3157 3157 3157 3157 3157 3157 3157 3157 3156 3155 3154 3153 3152 3150 3149 3148 3147 3145 3144 3142 3141 3140 3139 3138 3136
3140 3142 3144 3145 3147 3148 3149 3151 3152 3153 3154 3154 3155 3156 3156 3156 3156 3156 3156 3156 3156 3156 3156 3156 3156 3155 3155 3154 3152 3151 3150 3148 3147 3146 3145 3143 3142 3141 3140 3139 3138 3136
3138 3140 3142 3144 3145 3147 3148 3150 3151 3152 3152 3153 3154 3154 3155 3155 3155 3155 3155 3155 3155 3155 3155 3155 3155 3154 3154 3153 3152 3150 3149 3148 3146 3145 3144 3143 3142 3141 3140 3139 3137 3136
3137 3139 3140 3142 3143 3145 3147 3148 3149 3150 3151 3152 3153 3153 3153 3153 3153 3153 3154 3154 3154 3154 3154 3154 3154 3153 3152 3152 3151 3150 3148 3147 3146 3145 3144 3142 3141 3140 3139 3138 3137 3136
3135 3137 3139 3140 3142 3143 3145 3147 3148 3149 3149 3150 3151 3152 3152 3152 3152 3152 3153 3153 3153 3153 3153 3153 3153 3152 3151 3151 3150 3149 3148 3146 3145 3144 3143 3142 3141 3140 3139 3138 3136 3135
3134 3135 3137 3138 3140 3142 3144 3145 3146 3147 3148 3149 3150 3150 3151 3151 3151 3151 3152 3152 3152 3152 3152 3152 3152 3151 3150 3150 3149 3148 3147 3145 3144 3143 3142 3141 3141 3140 3138 3137 3136 3135
3132 3134 3135 3137 3139 3140 3142 3143 3144 3145 3146 3147 3148 3149 3149 3150 3150 3150 3151 3151 3151 3151 3151 3151 3151 3150 3149 3149 3148 3147 3146 3144 3143 3142 3142 3141 3140 3139 3138 3137 3136 3134
3130 3132 3133 3135 3137 3139 3140 3141 3142 3144 3145 3146 3147 3147 3148 3148 3149 3149 3149 3149 3149 3149 3149 3150 3150 3149 3148 3148 3147 3146 3144 3143 3142 3142 3141 3140 3140 3139 3137 3136 3135 3134
3128 3130 3131 3133 3135 3137 3138 3140 3141 3142 3143 3144 3145 3146 3146 3147 3147 3148 3148 3148 3148 3148 3148 3148 3148 3148 3147 3146 3146 3144 3143 3142 3142 3141 3141 3140 3139 3138 3137 3136 3135 3134
3126 3128 3129 3131 3133 3135 3137 3138 3139 3140 3141 3142 3143 3144 3145 3145 3146 3146 3147 3146 3146 3146 3147 3147 3147 3146 3146 3145 3144 3143 3142 3142 3141 3141 3140 3139 3138 3137 3136 3135 3134 3134
3124 3126 3128 3130 3132 3133 3135 3136 3137 3138 3140 3141 3141 3142 3143 3143 3144 3144 3145 3145 3145 3145 3145 3145 3145 3145 3144 3144 3143 3142 3141 3141 3140 3140 3139 3138 3137 3136 3136 3135 3134 3133
3122 3124 3126 3128 3130 3131 3132 3134 3135 3136 3138 3139 3140 3140 3141 3141 3142 3142 3143 3143 3143 3143 3144 3144 3144 3143 3143 3142 3142 3141 3141 3140 3140 3139 3138 3138 3137 3136 3135 3134 3134 3133
3120 3122 3124 3126 3127 3129 3130 3132 3133 3135 3136 3137 3138 3139 3139 3139 3140 3140 3141 3141 3141 3142 3142 3142 3142 3142 3141 3141 3140 3140 3140 3139 3139 3138 3138 3137 3136 3135 3135 3134 3133 3132
3118 3120 3122 3123 3125 3126 3128 3130 3131 3132 3134 3135 3136 3136 3137 3137 3137 3138 3138 3139 3139 3140 3140 3140 3140 3140 3140 3139 3139 3139 3139 3138 3138 3138 3137 3136 3135 3135 3134 3134 3133 3132
3117 3118 3120 3121 3123 3124 3126 3128 3129 3130 3132 3132 3133 3134 3134 3135 3135 3136 3136 3137 3137 3138 3138 3138 3138 3138 3138 3138 3138 3138 3137 3137 3137 3137 3136 3135 3135 3134 3134 3133 3132 3131
3115 3116 3118 3119 3120 3122 3124 3125 3127 3128 3129 3130 3131 3131 3132 3133 3133 3134 3134 3135 3135 3136 3136 3136 3136 3136 3136 3136 3136 3136 3136 3136 3136 3136 3135 3135 3134 3133 3133 3132 3131 3130
3113 3114 3115 3117 3118 3119 3121 3123 3124 3125 3126 3127 3128 3129 3129 3130 3131 3132 3132 3133 3133 3133 3134 3134 3134 3134 3135 3135 3135 3135 3135 3135 3135 3135 3134 3134 3133 3132 3132 3131 3130 3129
3110 3111 3112 3113 3114 3115 3116 3117 3119 3121 3123 3124 3125 3126 3127 3128 3129 3129 3130 3131 3131 3131 3132 3132 3132 3133 3133 3133 3133 3133 3133 3133 3134 3134 3133 3133 3132 3131 3131 3130 3129 3128
3106 3107 3108 3110 3111 3113 3114 3114 3116 3118 3120 3121 3122 3123 3124 3126 3127 3127 3128 3129 3129 3129 3130 3130 3131 3131 3131 3131 3131 3132 3132 3132 3132 3132 3132 3132 3131 3130 3129 3129 3128 3127
3103 3104 3106 3108 3110 3113 3114 3115 3116 3117 3118 3119 3120 3121 3122 3123 3124 3125 3126 3126 3127 3127 3128 3128 3128 3129 3129 3129 3130 3130 3130 3131 3131 3131 3131 3131 3130 3129 3128 3127 3127 3126
3101 3103 3104 3105 3106 3108 3109 3111 3114 3115 3116 3117 3118 3119 3120 3121 3122 3123 3123 3124 3125 3125 3126 3126 3126 3127 3127 3128 3128 3129 3129 3129 3130 3130 3130 3129 3128 3128 3127 3126 3125 3125